Fort Polk, LA

2:47 AM CST on January 24, 2018 (GMT -0600)
Fort Polk

Weather History for KBKB - August, 2014

Change the Weather History Date:

Wednesday, August 20, 2014

  Actual Average (KPOE) Record (KPOE)
Temperature  
Mean Temperature 84 °F -  
Max Temperature 98 °F 89 °F 104 °F (1999)
Min Temperature 71 °F 71 °F 68 °F (2013)
Cooling Degree Days 19    
Growing Degree Days 34 (Base 50)    
Moisture  
Dew Point 72 °F    
Average Humidity 75    
Maximum Humidity 91    
Minimum Humidity 41    
Precipitation  
Precipitation 0.03 in - - ()
Sea Level Pressure  
Sea Level Pressure 30.07 in    
Wind  
Wind Speed 2 mph (SSW)    
Max Wind Speed 7 mph    
Max Gust Speed -    
Visibility 9 miles    
Events Rain , Thunderstorm    
Averages and records for this station are not official NWS values.
T = Trace of Precipitation, MM = Missing Value Source: NWS Daily Summary

Daily Weather History Graph

Daily Weather History Graph

Search for Another Location

Airport or City:

Trip Planner

Search our weather history database for the weather conditions in past years. The results will help you decide how hot, cold, wet, or windy it might be!

Date:

Astronomy

Aug. 20, 2014 Rise Set
Actual Time 6:40 AM CDT 7:48 PM CDT
Civil Twilight 6:15 AM CDT 8:13 PM CDT
Nautical Twilight 5:45 AM CDT 8:43 PM CDT
Astronomical Twilight 5:14 AM CDT 9:14 PM CDT
Moon 2:28 AM CDT (8/20) 4:27 PM CDT (8/20)
Length of Visible Light 13h 58m
Length of Day
13h 08m
Waning Crescent, 20% of the Moon is Illuminated
Aug 20
Waning Crescent
Aug 25
New
Sep 2
First Quarter
Sep 8
Full
Sep 15
Last Quarter

Hourly Weather History & Observations

Time (CDT) Temp. Heat Index Dew Point Humidity Pressure Visibility Wind Dir Wind Speed Gust Speed Precip Events Conditions
12:54 AM 73.9 °F - 71.1 °F 91% 30.02 in 9.0 mi Calm Calm - N/A   Clear
1:54 AM 73.9 °F - 71.1 °F 91% 30.01 in 8.0 mi Calm Calm - N/A   Clear
2:54 AM 73.9 °F - 70.0 °F 87% 30.01 in 9.0 mi Calm Calm - N/A   Clear
3:54 AM 73.0 °F - 70.0 °F 90% 30.02 in 9.0 mi Calm Calm - N/A   Clear
4:54 AM 72.0 °F - 69.1 °F 91% 30.04 in 9.0 mi Calm Calm - N/A   Clear
5:54 AM 72.0 °F - 69.1 °F 91% 30.05 in 9.0 mi Calm Calm - N/A   Clear
6:54 AM 71.1 °F - 68.0 °F 90% 30.07 in 5.0 mi Calm Calm - N/A   Clear
7:54 AM 73.0 °F - 70.0 °F 90% 30.09 in 8.0 mi Calm Calm - N/A   Clear
8:54 AM 82.0 °F 87.9 °F 73.9 °F 76% 30.09 in 10.0 mi Variable 3.5 mph - N/A   Clear
9:54 AM 87.1 °F 96.3 °F 75.0 °F 67% 30.09 in 10.0 mi Variable 3.5 mph - N/A   Clear
10:54 AM 90.0 °F 100.2 °F 75.0 °F 61% 30.10 in 10.0 mi SSW 6.9 mph - N/A   Scattered Clouds
11:19 AM 91.0 °F 101.6 °F 75.0 °F 59% 30.03 in 10.0 mi Variable 5.8 mph - N/A   Mostly Cloudy
11:54 AM 91.9 °F 101.3 °F 73.9 °F 55% 30.11 in 10.0 mi Variable 4.6 mph - N/A   Mostly Cloudy
12:54 PM 93.0 °F 101.9 °F 73.0 °F 52% 30.09 in 10.0 mi Variable 5.8 mph - N/A   Scattered Clouds
1:54 PM 95.0 °F 102.5 °F 71.1 °F 46% 30.07 in 10.0 mi Variable 5.8 mph - N/A   Partly Cloudy
2:54 PM 97.0 °F 103.5 °F 70.0 °F 41% 30.04 in 10.0 mi Variable 5.8 mph - N/A   Clear
3:54 PM 96.1 °F 103.5 °F 71.1 °F 44% 30.03 in 10.0 mi Variable 4.6 mph - N/A   Scattered Clouds
4:02 PM 96.1 °F 102.9 °F 70.0 °F 43% 29.95 in 10.0 mi Variable 6.9 mph - N/A Thunderstorm Thunderstorm
4:54 PM 82.0 °F 86.3 °F 71.1 °F 69% 30.10 in 10.0 mi Variable 3.5 mph - 0.00 in Thunderstorm Thunderstorm
5:54 PM 75.9 °F - 72.0 °F 87% 30.12 in 8.0 mi Variable 3.5 mph - 0.01 in Rain , Thunderstorm Light Thunderstorms and Rain
6:54 PM 75.9 °F - 73.0 °F 91% 30.09 in 10.0 mi Calm Calm - 0.02 in Rain Light Rain
7:54 PM 77.0 °F - 73.0 °F 88% 30.09 in 10.0 mi Calm Calm - 0.00 in   Clear
8:54 PM 77.0 °F - 73.0 °F 88% 30.08 in 10.0 mi Calm Calm - N/A   Clear
9:54 PM 77.0 °F - 73.0 °F 88% 30.09 in 10.0 mi Calm Calm - N/A   Clear
10:54 PM 75.9 °F - 73.0 °F 91% 30.11 in 10.0 mi Calm Calm - N/A   Clear
11:54 PM 75.9 °F - 72.0 °F 87% 30.12 in 10.0 mi Calm Calm - N/A   Clear